FW9069 Weather Reports


time (UTC)temp
C
wind
direction
speed
KPH
gust
KPH
rain 1hr
cm
rain 24hr
cm
rain mn
cm
humidity
%
barometer
mb
20260507051835 11 229 17.7 30.6 0.00 0.00 0.00 86 1021.3
20260507050323 11 247 16.1 30.6 0.00 0.00 0.00 85 1021.5
20260507044851 11 266 20.9 30.6 0.00 0.00 0.00 85 1021.3
20260507043338 11 237 17.7 35.4 0.00 0.00 0.00 84 1021.3
20260507041823 11 258 17.7 27.4 0.00 0.00 0.00 84 1021.1
20260507040326 11 235 17.7 30.6 0.00 0.00 0.00 84 1020.9
20260507034815 11 223 17.7 29.0 0.00 0.00 0.00 84 1020.8
20260507033347 12 244 17.7 30.6 0.00 0.00 0.00 83 1020.7
20260507031854 12 211 17.7 25.7 0.00 0.00 0.00 83 1020.6
20260507030323 12 220 12.9 22.5 0.00 0.00 0.00 81 1020.5
20260507024827 13 221 9.7 22.5 0.00 0.00 0.00 80 1020.5
20260507023358 13 227 14.5 24.1 0.00 0.00 0.00 78 1020.4
20260507021823 15 242 11.3 24.1 0.00 0.00 0.00 76 1020.4
20260507020331 15 221 14.5 27.4 0.00 0.00 0.00 74 1020.5
20260507014814 16 242 12.9 29.0 0.00 0.00 0.00 72 1020.6
20260507013349 17 244 12.9 24.1 0.00 0.00 0.00 71 1020.6
20260507011829 17 212 11.3 20.9 0.00 0.00 0.00 71 1020.5
20260507010344 17 243 16.1 27.4 0.00 0.00 0.00 69 1020.7
20260507004832 18 231 14.5 24.1 0.00 0.00 0.00 68 1020.7
20260507003342 19 225 8.0 22.5 0.00 0.00 0.00 66 1020.6
20260507001851 19 252 11.3 25.7 0.00 0.00 0.00 65 1020.6
20260507000338 20 238 9.7 19.3 0.00 0.00 0.00 64 1020.6
20260506234846 20 239 11.3 24.1 0.00 0.00 0.00 64 1020.6
20260506233350 21 253 8.0 17.7 0.00 0.00 0.00 62 1020.5
20260506231836 22 227 8.0 17.7 0.00 0.00 0.00 62 1020.6
20260506230327 22 209 9.7 19.3 0.00 0.00 0.00 62 1020.5
20260506224838 22 225 8.0 19.3 0.00 0.00 0.00 63 1020.7
20260506223327 22 214 8.0 12.9 0.00 0.00 0.00 65 1020.8
20260506221830 22 202 6.4 14.5 0.00 0.00 0.00 62 1020.9
20260506220333 22 233 4.8 12.9 0.00 0.00 0.00 65 1020.8
20260506214837 21 216 8.0 16.1 0.00 0.00 0.00 67 1020.9
20260506213322 21 222 6.4 14.5 0.00 0.00 0.00 66 1021.0
20260506211827 20 117 4.8 11.3 0.00 0.00 0.00 67 1020.9
20260506210331 20 192 1.6 12.9 0.00 0.00 0.00 72 1021.1
20260506204836 18 177 1.6 12.9 0.00 0.00 0.00 71 1021.3
20260506203322 18 233 6.4 11.3 0.00 0.00 0.00 75 1021.3
20260506201849 18 225 1.6 14.5 0.00 0.00 0.00 75 1021.4
20260506200336 18 207 1.6 11.3 0.00 0.00 0.00 75 1021.4
20260506194843 17 198 1.6 11.3 0.00 0.00 0.00 79 1021.4
20260506193328 17 201 6.4 14.5 0.00 0.00 0.00 78 1021.4
20260506191858 17 120 8.0 17.7 0.00 0.00 0.00 80 1021.5
20260506190323 16 178 6.4 12.9 0.00 0.00 0.00 80 1021.5
20260506184832 16 147 3.2 14.5 0.00 0.00 0.00 83 1021.5
20260506183333 15 154 4.8 12.9 0.00 0.00 0.00 85 1021.6
20260506181821 15 202 6.4 12.9 0.00 0.00 0.00 85 1021.6
20260506180331 14 112 11.3 16.1 0.00 0.00 0.00 87 1021.5
20260506174833 13 115 11.3 16.1 0.00 0.00 0.00 88 1021.2
20260506173319 13 204 1.6 11.3 0.00 0.00 0.00 89 1021.4
20260506171826 12 197 4.8 11.3 0.00 0.00 0.00 90 1021.7
20260506170314 12 208 4.8 11.3 0.00 0.00 0.00 92 1021.2
20260506164829 12 219 3.2 11.3 0.00 0.00 0.00 92 1021.5
20260506163335 11 204 4.8 12.9 0.00 0.00 0.00 93 1021.5
20260506161835 11 194 4.8 11.3 0.00 0.00 0.00 94 1021.5
20260506160322 11 176 3.2 9.7 0.00 0.00 0.00 94 1021.1
20260506154849 11 167 3.2 6.4 0.00 0.00 0.00 94 1020.9
20260506153330 11 203 1.6 6.4 0.00 0.00 0.00 94 1021.3
20260506151836 11 186 4.8 9.7 0.00 0.00 0.00 94 1021.3
20260506150324 11 237 4.8 12.9 0.00 0.00 0.00 94 1021.4
20260506144827 11 218 9.7 22.5 0.00 0.00 0.00 93 1021.4
20260506143331 10 207 14.5 20.9 0.00 0.00 0.00 93 1020.8
20260506141834 10 169 8.0 14.5 0.00 0.00 0.00 94 1020.3
20260506140321 10 175 4.8 9.7 0.00 0.00 0.00 95 1020.2
20260506134824 10 177 3.2 9.7 0.00 0.00 0.00 94 1020.4
20260506133330 10 179 4.8 9.7 0.00 0.00 0.00 93 1020.4
20260506131832 10 208 1.6 6.4 0.00 0.00 0.00 91 1020.2
20260506130337 10 221 4.8 6.4 0.00 0.00 0.00 90 1020.2
20260506124821 11 235 1.6 3.2 0.00 0.00 0.00 90 1020.1
20260506123326 11 234 3.2 12.9 0.00 0.00 0.00 90 1020.1
20260506121813 11 209 4.8 8.0 0.00 0.00 0.00 90 1020.1
20260506120325 11 210 4.8 6.4 0.00 0.00 0.00 90 1019.9
20260506114829 11 250 3.2 9.7 0.00 0.00 0.00 91 1020.0
20260506113353 11 287 3.2 6.4 0.00 0.00 0.00 92 1019.5
20260506111818 11 196 3.2 8.0 0.00 0.00 0.00 93 1019.3
20260506110323 11 238 0.0 4.8 0.00 0.00 0.00 93 1019.3
20260506104825 11 228 4.8 8.0 0.00 0.00 0.00 94 1019.0
20260506103330 10 233 0.0 1.6 0.00 0.00 0.00 93 1018.8
20260506101855 10 233 0.0 0.0 0.00 0.00 0.00 91 1018.7
20260506100337 11 232 0.0 1.6 0.00 0.00 0.00 90 1018.6
20260506094822 11 233 0.0 1.6 0.00 0.00 0.00 90 1018.5
20260506093328 11 233 0.0 3.2 0.00 0.00 0.00 89 1018.4
20260506091828 12 232 1.6 3.2 0.00 0.00 0.00 89 1018.3
20260506090333 12 225 3.2 9.7 0.00 0.00 0.00 90 1018.1
20260506084819 12 224 11.3 17.7 0.00 0.00 0.00 89 1018.1
20260506083324 12 222 11.3 16.1 0.00 0.00 0.00 88 1018.0
20260506081826 12 231 4.8 14.5 0.00 0.00 0.00 88 1018.1
20260506080333 12 227 9.7 12.9 0.00 0.00 0.00 87 1018.1
20260506073319 13 237 1.6 3.2 0.00 0.00 0.00 86 1018.0
20260506071825 13 237 0.0 3.2 0.00 0.00 0.00 85 1018.0
20260506070331 13 228 0.0 3.2 0.00 0.00 0.00 86 1018.0
20260506061839 13 229 3.2 4.8 0.00 0.00 0.00 85 1017.9
20260506060328 13 229 4.8 8.0 0.00 0.00 0.00 85 1017.5